Wetbulb
59.15 55.70 53.56 50.97 43.60 40.53 37.31 41.62 44.39 45.53 47.36 49.55 51.48 53.50 52.09 53.62 52.54 46.81 62.71 66.15 68.35 68.02 69.44 70.55 71.24 71.69 71.67 71.61 71.21 71.09 70.50 70.05 69.36 68.95 69.57 69.27 68.82 68.57 68.29 68.00 68.87 68.21 68.54 68.68 69.11 69.76 70.01 69.30 69.13
57.04 55.23 50.58 45.59 40.08 35.61 36.03 41.79 45.21 47.17 49.62 52.00 52.91 52.60 53.43 52.57 59.04 61.23 63.09 67.52 68.18 68.29 69.09 69.47 70.47 71.61 71.51 71.30 71.20 70.92 70.31 70.37 69.09 68.82 70.26 69.83 68.94 68.19 67.95 67.62 67.51 67.95 67.87 69.03 69.51 68.84 68.79 68.18 67.94
54.81 54.20 46.17 42.75 37.71 35.70 37.93 42.11 46.37 48.45 49.60 48.67 49.43 53.34 54.58 55.45 59.71 61.01 65.51 67.72 67.90 67.47 68.50 68.71 70.17 71.32 71.50 71.21 71.07 70.57 70.04 70.11 69.69 68.60 69.60 70.28 68.93 68.21 67.47 67.68 67.08 67.30 67.93 68.28 68.40 68.07 67.66 67.28 66.97
51.72 48.72 45.14 39.20 37.22 39.50 42.33 45.41 46.48 47.17 47.08 51.23 51.51 50.58 55.94 59.58 61.02 64.11 66.51 66.85 66.33 66.57 67.62 69.03 70.36 71.38 70.95 70.88 70.97 70.45 69.72 69.89 69.29 68.23 68.71 68.89 67.92 66.98 67.17 67.80 66.67 67.80 67.87 67.71 67.74 67.17 66.52 66.24 66.02
48.51 45.47 39.86 37.51 37.59 40.42 42.96 46.63 46.46 45.82 45.49 47.07 50.53 50.50 53.31 60.75 63.93 64.26 65.00 66.20 65.30 65.76 66.97 68.52 70.09 70.90 70.86 70.82 71.05 70.32 69.55 69.30 68.91 67.93 67.54 67.89 67.83 67.20 66.84 67.60 67.75 68.16 67.16 66.96 66.97 66.34 65.84 65.31 64.87
45.57 44.40 37.36 35.27 36.92 42.80 44.51 46.96 46.62 44.23 45.71 50.47 52.01 52.07 52.47 61.33 61.46 62.99 64.68 64.91 66.22 66.18 66.77 67.40 66.62 68.61 69.74 70.30 70.04 69.49 69.26 69.03 69.08 68.35 67.11 67.16 67.26 67.92 67.16 67.34 67.43 67.89 67.02 66.56 66.42 65.94 65.27 64.67 64.33
44.03 41.06 37.42 37.10 37.24 40.12 45.44 47.13 45.40 45.16 44.78 46.87 54.24 50.17 54.48 60.76 61.77 63.12 64.39 65.46 66.24 66.57 65.72 65.42 66.48 66.82 66.77 67.94 67.86 68.34 68.43 68.20 68.52 68.47 67.91 67.14 67.39 67.72 68.27 67.91 67.72 67.74 67.05 66.41 65.97 65.48 64.75 64.12 63.62
46.79 43.12 38.28 37.30 38.89 39.70 43.93 45.66 44.25 45.62 44.25 50.99 55.60 50.65 54.77 60.15 62.95 63.42 64.30 65.21 65.04 65.04 64.50 63.79 64.45 65.47 65.76 66.39 64.76 65.59 66.57 66.99 66.94 66.28 64.77 64.02 64.44 64.99 65.84 65.35 66.94 67.01 66.80 66.23 65.81 65.21 64.25 63.47 62.85
46.68 39.97 37.33 40.53 39.77 41.69 44.72 43.67 44.66 46.84 48.00 50.38 52.60 54.48 57.63 61.29 64.37 63.54 62.72 62.42 63.23 63.47 62.83 62.90 63.35 63.75 64.29 64.70 62.68 63.14 64.10 64.30 63.77 63.11 61.69 60.52 60.30 60.74 61.51 63.46 65.51 65.86 65.86 65.61 65.21 64.52 63.11 61.88 61.12
43.30 39.53 41.61 44.98 42.99 43.43 44.41 44.73 45.59 45.84 45.38 50.81 52.30 55.84 61.19 60.60 62.97 62.17 61.25 60.68 60.47 60.69 61.11 61.96 62.01 62.79 63.62 65.61 63.28 62.51 62.40 61.92 61.40 60.65 60.06 60.23 60.06 59.81 60.05 59.76 62.40 63.43 63.45 64.08 63.67 62.91 62.16 60.01 58.32
43.39 41.67 44.66 44.70 45.12 45.88 44.99 43.60 44.12 45.55 42.31 51.03 53.02 56.84 59.36 59.31 60.62 61.66 61.60 61.67 61.04 60.95 61.18 61.41 61.73 62.69 62.74 63.35 62.85 61.93 61.24 60.75 60.35 59.98 59.90 59.31 59.26 58.60 58.02 57.38 57.40 57.31 57.85 58.48 58.10 57.17 57.30 57.41 56.46
40.68 43.78 44.59 46.04 45.84 45.82 44.63 45.40 43.21 43.34 44.49 51.86 57.18 59.01 59.15 58.63 57.89 60.74 61.40 61.73 61.60 61.53 61.44 61.49 61.74 62.28 61.99 62.75 62.59 62.34 61.67 61.02 60.21 59.06 59.87 58.11 57.91 57.48 57.36 56.98 57.10 56.52 57.24 57.22 56.98 56.52 56.85 56.05 56.34
43.27 42.79 45.10 45.28 45.18 45.37 45.28 43.44 43.23 43.50 43.66 56.72 57.29 58.07 58.35 58.95 57.83 59.21 61.83 62.23 62.26 61.97 62.51 62.67 62.28 62.12 61.75 61.86 61.95 61.83 61.67 61.70 61.32 60.47 59.57 58.53 56.95 56.98 58.16 57.58 57.44 57.14 56.74 56.92 56.09 55.67 55.72 55.44 55.76
45.19 43.71 44.22 44.97 44.45 44.24 43.70 41.47 43.06 42.77 48.26 55.48 56.64 56.35 57.40 58.34 58.36 58.08 59.29 60.87 61.75 62.38 62.51 62.66 62.66 63.47 62.97 61.21 61.27 61.82 61.57 61.99 61.45 60.63 59.71 59.16 58.41 57.73 57.90 57.40 57.70 57.22 57.08 56.54 56.30 55.35 54.95 54.92 54.94
45.07 40.77 41.24 42.40 43.35 43.09 43.55 39.46 40.87 43.60 50.81 54.47 54.83 54.87 56.32 57.21 57.48 58.55 59.47 60.58 61.88 62.55 63.18 62.66 62.60 63.30 63.84 63.27 62.34 63.51 62.99 63.22 61.27 60.93 60.37 59.68 58.95 58.14 58.00 57.36 57.00 57.05 57.05 56.08 54.83 54.64 54.37 53.79 54.05
41.70 39.81 36.01 40.95 42.73 41.77 41.87 37.30 41.82 42.87 48.22 49.68 51.71 51.92 54.48 55.71 57.29 57.88 58.56 59.43 61.62 62.33 62.53 63.14 63.60 62.94 63.17 63.93 63.84 63.61 63.25 62.35 62.84 62.31 60.94 60.14 59.73 58.58 57.08 56.92 57.10 57.17 56.54 55.77 54.72 53.97 53.48 53.04 52.63
39.03 32.03 34.07 37.05 41.87 40.00 38.65 36.42 41.24 42.00 43.61 45.39 45.94 47.73 50.79 52.93 54.07 56.13 58.24 58.96 60.57 61.92 62.66 62.93 63.04 62.65 62.84 62.66 64.09 63.69 63.27 62.69 61.84 61.60 62.58 62.11 61.34 59.60 57.65 56.44 56.28 56.16 56.04 55.35 54.62 53.88 52.85 52.71 54.19
33.86 33.72 34.72 34.91 39.50 38.22 35.92 37.34 38.23 40.89 40.98 40.84 41.33 42.05 44.10 48.98 53.82 55.80 55.92 57.47 59.36 60.68 62.93 63.36 63.17 63.08 62.11 62.26 63.67 63.77 63.53 63.54 63.80 63.19 63.10 62.49 62.44 62.02 60.11 58.43 57.03 56.47 55.57 56.79 54.87 55.01 54.92 54.89 54.21
38.25 36.64 36.07 36.49 39.38 37.37 37.41 37.40 38.41 40.61 38.00 37.75 38.71 39.81 40.77 45.07 50.41 52.08 54.96 56.13 57.16 58.88 61.37 62.55 62.48 62.24 62.30 61.05 62.36 62.36 62.27 62.95 63.13 63.52 63.44 63.32 63.10 63.01 62.08 60.84 59.75 58.72 57.95 55.90 55.82 55.92 54.46 54.18 54.36
37.45 36.47 34.43 35.43 38.64 37.90 35.78 36.61 37.71 37.82 38.99 39.40 40.12 38.81 40.30 43.42 44.40 48.30 52.27 54.71 56.24 57.99 60.52 61.80 62.28 62.24 62.57 62.23 61.23 62.94 62.74 62.84 63.03 63.28 63.11 63.34 62.99 62.77 62.05 61.57 61.16 60.47 59.06 57.89 56.60 55.75 54.87 52.86 54.22
36.97 34.36 33.18 34.04 35.72 36.03 35.44 34.69 35.08 38.83 38.09 39.41 40.64 39.99 39.44 42.79 42.94 43.76 46.06 49.91 51.99 55.73 57.56 60.89 61.88 62.12 62.36 62.07 60.53 61.94 61.81 61.57 61.41 61.36 61.82 62.51 62.91 62.67 62.03 61.74 61.21 60.69 59.77 58.79 58.47 57.17 55.50 54.57 54.95
33.78 38.00 37.29 35.44 33.50 30.34 33.02 27.53 32.81 36.55 37.47 38.12 39.63 40.20 40.16 40.25 40.39 41.06 42.69 42.15 42.81 44.64 45.68 53.19 59.99 61.83 62.13 61.98 61.10 59.65 59.58 59.43 60.64 61.24 61.79 62.07 62.34 62.30 62.10 61.53 60.95 60.54 59.74 58.73 58.03 57.55 56.81 55.38 53.89
36.38 38.92 37.41 35.24 31.98 31.48 28.68 27.56 30.49 32.16 34.65 36.82 39.07 38.92 39.39 40.41 41.70 42.25 43.09 44.80 46.43 46.96 45.35 45.02 53.33 61.57 61.95 61.76 61.64 61.63 60.60 59.38 60.37 60.76 60.66 60.87 60.76 61.29 61.18 61.26 60.91 59.95 59.20 58.63 58.35 57.61 56.93 56.26 55.01
39.47 37.49 35.29 34.32 31.80 25.66 29.47 28.68 28.67 30.72 34.85 37.14 36.64 38.73 39.69 40.32 42.32 43.75 46.13 48.01 46.92 44.84 43.82 43.68 49.40 57.04 61.58 61.71 62.28 61.79 60.37 58.95 58.93 58.79 58.49 58.62 57.61 54.64 54.99 53.97 54.44 53.21 52.22 51.21 51.62 53.32 51.32 51.40 53.01
38.67 35.15 25.50 25.12 24.44 25.37 26.05 25.53 31.89 33.68 35.52 37.78 39.49 39.23 40.17 41.79 42.44 44.58 46.59 46.98 46.30 45.55 45.90 45.65 51.73 53.01 59.33 60.68 61.26 59.99 59.56 59.28 58.44 57.43 56.38 55.14 50.69 48.84 48.33 48.61 46.67 46.41 46.30 46.22 46.43 46.11 45.80 45.69 45.17
34.96 34.45 24.99 20.87 20.73 21.75 26.53 24.98 31.67 34.38 36.76 37.79 39.44 40.44 40.73 40.97 42.38 44.63 46.44 46.42 46.67 47.39 47.97 49.64 50.69 51.01 52.95 55.44 57.38 57.55 56.72 55.45 53.62 51.46 49.36 47.33 46.43 45.30 44.01 43.14 43.06 43.27 43.35 42.83 43.14 42.79 42.80 42.26 41.87
34.02 32.64 33.36 25.91 16.64 21.95 24.42 27.97 34.19 33.98 34.86 36.34 37.95 40.17 39.71 40.40 41.79 42.67 43.21 44.65 46.20 46.71 47.50 48.02 48.02 46.59 47.30 48.25 49.24 49.40 48.68 48.02 46.38 44.98 44.41 43.50 41.13 41.02 40.46 40.38 39.83 39.94 40.22 40.52 40.37 39.88 39.77 39.12 38.79
35.54 37.30 29.76 27.78 19.60 17.71 21.85 23.14 28.38 31.06 34.40 36.21 37.10 38.99 38.91 40.16 40.83 40.98 41.20 41.86 42.40 43.11 43.25 43.39 43.80 43.55 42.88 43.56 44.31 43.99 43.97 43.36 41.43 40.52 39.36 38.81 38.75 38.75 38.29 38.04 37.96 37.70 37.65 37.58 37.82 37.60 37.91 36.50 36.35
32.50 31.01 31.13 31.83 27.67 21.57 17.94 24.17 31.93 35.08 36.65 37.36 38.59 38.76 39.05 39.33 39.75 40.04 39.96 40.56 40.80 40.76 41.02 40.58 41.01 40.83 40.53 40.97 40.66 40.08 38.87 38.48 38.39 38.15 37.29 37.06 36.90 36.87 36.62 36.46 35.97 35.84 35.25 35.24 35.31 35.90 35.47 33.98 34.11
33.05 33.10 33.08 28.84 25.13 24.88 24.45 26.56 32.49 33.21 35.03 37.77 37.58 39.19 39.07 39.82 39.55 39.39 39.56 39.55 39.49 39.53 39.45 39.06 38.47 38.51 38.45 38.73 38.14 37.31 36.94 36.71 36.43 35.59 35.68 35.66 35.04 35.16 34.81 34.39 33.87 33.94 33.96 33.43 33.74 34.34 33.03 32.37 32.19
MSLP
1015.38 1015.53 1015.80 1016.32 1017.69 1018.43 1018.07 1017.43 1016.74 1016.61 1016.71 1016.75 1016.82 1017.23 1018.74 1019.38 1019.75 1020.52 1020.01 1020.34 1020.55 1021.02 1021.30 1021.40 1021.54 1021.74 1021.92 1022.10 1022.19 1022.32 1022.46 1022.43 1022.34 1022.56 1022.54 1022.56 1022.66 1022.73 1022.78 1022.82 1022.88 1022.85 1022.87 1022.89 1023.01 1023.08 1023.05 1023.04 1023.12
1015.44 1015.47 1016.07 1016.87 1018.03 1018.68 1018.40 1017.46 1016.98 1016.47 1016.75 1017.04 1017.26 1018.08 1018.86 1019.83 1019.79 1020.17 1020.53 1020.67 1020.73 1021.06 1021.44 1021.68 1021.80 1021.93 1022.09 1022.32 1022.49 1022.63 1022.66 1022.55 1022.74 1022.74 1022.80 1022.85 1023.00 1023.13 1023.22 1023.30 1023.28 1023.27 1023.28 1023.36 1023.38 1023.52 1023.50 1023.60 1023.62
1015.39 1015.64 1016.57 1017.28 1018.33 1018.34 1017.93 1017.54 1016.92 1016.73 1016.74 1016.99 1017.86 1018.49 1019.19 1019.92 1019.99 1020.06 1020.11 1020.54 1020.92 1021.32 1021.66 1021.90 1022.04 1022.13 1022.26 1022.54 1022.63 1022.74 1022.81 1022.89 1022.93 1023.08 1023.21 1023.13 1023.35 1023.51 1023.59 1023.60 1023.58 1023.66 1023.57 1023.69 1023.74 1023.83 1023.97 1024.02 1024.04
1015.56 1016.09 1017.05 1017.55 1017.84 1017.23 1017.24 1017.13 1016.81 1016.74 1016.91 1017.15 1018.01 1019.12 1019.56 1019.60 1019.53 1019.87 1020.33 1020.65 1021.17 1021.73 1021.98 1022.10 1022.22 1022.33 1022.54 1022.77 1022.79 1022.98 1023.07 1023.18 1023.24 1023.44 1023.62 1023.69 1023.71 1023.91 1023.97 1023.96 1024.06 1024.08 1024.06 1024.02 1024.08 1024.32 1024.41 1024.39 1024.40
1016.02 1016.71 1017.58 1017.76 1017.32 1016.79 1016.79 1016.66 1016.71 1016.90 1017.20 1017.75 1018.00 1019.57 1019.84 1019.69 1019.62 1020.10 1020.66 1020.82 1021.45 1022.03 1022.32 1022.42 1022.47 1022.52 1022.74 1022.98 1023.09 1023.25 1023.38 1023.49 1023.66 1023.84 1023.97 1024.07 1024.13 1024.27 1024.35 1024.38 1024.43 1024.35 1024.47 1024.56 1024.61 1024.71 1024.73 1024.73 1024.81
1016.66 1016.98 1017.89 1017.93 1017.21 1016.77 1016.72 1016.47 1016.73 1016.98 1017.43 1018.06 1018.73 1019.44 1020.19 1019.97 1020.04 1020.74 1021.03 1021.28 1021.56 1022.03 1022.40 1022.52 1022.69 1022.80 1023.01 1023.24 1023.38 1023.56 1023.72 1023.83 1023.94 1024.11 1024.29 1024.39 1024.49 1024.54 1024.66 1024.77 1024.78 1024.73 1024.88 1024.97 1025.07 1025.13 1025.16 1025.14 1025.16
1016.63 1017.28 1017.75 1017.53 1017.28 1016.93 1016.42 1016.35 1016.53 1016.87 1017.43 1017.86 1018.26 1019.89 1020.33 1020.32 1020.59 1020.82 1021.11 1021.39 1021.95 1022.35 1022.54 1022.74 1022.79 1023.00 1023.23 1023.51 1023.71 1023.84 1024.05 1024.16 1024.28 1024.44 1024.63 1024.88 1025.02 1025.00 1025.03 1025.13 1025.14 1025.13 1025.26 1025.33 1025.40 1025.50 1025.48 1025.40 1025.37
1016.18 1017.03 1017.49 1017.13 1017.04 1016.58 1016.23 1016.33 1016.34 1016.48 1017.40 1017.49 1017.90 1019.49 1020.22 1020.02 1020.60 1021.08 1021.50 1021.86 1022.18 1022.42 1022.70 1023.01 1023.07 1023.20 1023.48 1023.73 1023.93 1024.09 1024.29 1024.45 1024.64 1024.86 1025.04 1025.22 1025.35 1025.44 1025.51 1025.54 1025.51 1025.52 1025.56 1025.63 1025.69 1025.72 1025.71 1025.66 1025.59
1015.84 1016.70 1017.08 1016.74 1016.78 1016.19 1016.04 1016.10 1016.37 1016.53 1017.04 1017.59 1017.95 1018.23 1018.52 1019.64 1020.36 1021.33 1022.02 1022.47 1022.72 1023.01 1022.93 1022.99 1023.23 1023.46 1023.71 1024.00 1024.29 1024.40 1024.56 1024.74 1024.95 1025.15 1025.41 1025.63 1025.84 1025.92 1025.97 1025.95 1025.90 1025.87 1025.89 1025.90 1025.93 1025.98 1025.99 1025.98 1025.92
1015.93 1016.47 1016.24 1015.72 1015.75 1015.68 1015.86 1015.74 1016.29 1016.89 1017.37 1017.96 1018.23 1018.19 1018.73 1019.76 1020.42 1021.07 1021.83 1022.50 1022.82 1023.07 1023.12 1023.10 1023.23 1023.57 1023.86 1024.10 1024.45 1024.70 1024.84 1025.05 1025.31 1025.51 1025.74 1025.90 1025.99 1026.08 1026.17 1026.18 1026.13 1026.12 1026.10 1026.09 1026.07 1026.08 1026.12 1026.15 1026.14
1015.92 1015.89 1015.61 1015.24 1015.15 1015.33 1015.53 1016.03 1016.26 1016.89 1017.64 1017.70 1018.09 1018.60 1019.11 1019.95 1020.53 1021.08 1021.49 1021.85 1022.44 1022.88 1023.03 1023.00 1023.35 1023.55 1023.77 1024.19 1024.54 1024.81 1025.04 1025.25 1025.44 1025.59 1025.70 1025.91 1026.11 1026.23 1026.30 1026.40 1026.39 1026.31 1026.25 1026.28 1026.25 1026.30 1026.29 1026.22 1026.23
1016.06 1015.39 1015.19 1014.97 1014.95 1015.30 1015.35 1015.79 1016.47 1016.64 1016.67 1016.79 1017.72 1018.10 1018.97 1019.69 1020.41 1020.91 1021.45 1021.87 1022.11 1022.63 1022.83 1023.04 1023.14 1023.43 1023.73 1024.06 1024.42 1024.71 1025.03 1025.22 1025.52 1025.70 1025.83 1026.09 1026.34 1026.45 1026.56 1026.62 1026.58 1026.56 1026.51 1026.47 1026.44 1026.47 1026.38 1026.34 1026.29
1016.12 1015.55 1015.33 1015.04 1015.01 1015.27 1015.50 1015.72 1016.32 1016.65 1016.69 1017.20 1018.30 1018.85 1019.22 1019.63 1020.24 1020.61 1020.97 1021.57 1021.83 1022.01 1022.25 1022.46 1022.62 1023.05 1023.53 1024.07 1024.49 1024.75 1024.99 1025.15 1025.27 1025.56 1025.72 1026.01 1026.32 1026.51 1026.50 1026.52 1026.55 1026.54 1026.56 1026.52 1026.55 1026.52 1026.47 1026.43 1026.33
1015.83 1015.67 1015.55 1015.18 1015.37 1015.51 1015.73 1016.12 1016.35 1016.86 1017.13 1017.96 1018.57 1019.08 1019.30 1019.42 1019.85 1020.51 1020.75 1021.05 1021.47 1021.66 1021.84 1022.05 1022.39 1022.64 1023.12 1023.65 1024.09 1024.43 1024.74 1024.92 1025.18 1025.37 1025.50 1025.69 1025.94 1026.20 1026.35 1026.47 1026.48 1026.50 1026.50 1026.51 1026.57 1026.62 1026.65 1026.65 1026.53
1016.34 1016.17 1016.08 1015.72 1015.48 1015.65 1015.80 1016.55 1016.64 1016.76 1017.58 1018.36 1019.03 1019.23 1019.45 1019.51 1019.85 1019.82 1020.24 1020.55 1020.87 1021.20 1021.47 1022.00 1022.19 1022.38 1022.75 1023.15 1023.74 1024.01 1024.31 1024.57 1025.05 1025.22 1025.32 1025.43 1025.66 1025.95 1026.12 1026.24 1026.40 1026.38 1026.40 1026.43 1026.53 1026.54 1026.56 1026.60 1026.41
1016.81 1016.47 1016.59 1016.19 1015.69 1015.94 1015.94 1016.62 1016.65 1017.01 1017.78 1018.74 1019.28 1019.47 1019.65 1019.56 1019.52 1019.71 1019.88 1020.21 1020.47 1020.91 1021.27 1021.54 1021.79 1022.29 1022.44 1022.61 1023.30 1023.66 1023.99 1024.31 1024.59 1024.88 1025.19 1025.42 1025.60 1025.75 1025.98 1026.20 1026.22 1026.14 1026.29 1026.47 1026.57 1026.61 1026.66 1026.65 1026.68
1017.06 1016.67 1016.58 1016.54 1016.22 1016.16 1016.38 1016.74 1016.71 1017.19 1017.90 1018.75 1019.18 1019.49 1019.65 1019.54 1019.70 1019.56 1019.52 1019.67 1019.86 1020.15 1020.78 1021.24 1021.67 1022.14 1022.46 1022.67 1022.97 1023.55 1023.85 1024.22 1024.56 1024.76 1024.82 1025.04 1025.30 1025.64 1025.96 1026.16 1026.23 1026.28 1026.35 1026.41 1026.50 1026.63 1026.80 1026.59 1026.43
1016.78 1016.75 1016.64 1016.37 1016.56 1016.46 1016.79 1016.69 1016.90 1017.29 1018.03 1018.57 1018.92 1019.23 1019.51 1019.24 1018.99 1018.88 1019.22 1019.34 1019.64 1020.03 1020.35 1020.96 1021.43 1021.92 1022.30 1022.70 1022.93 1023.48 1023.75 1023.86 1024.06 1024.26 1024.52 1024.91 1025.08 1025.17 1025.47 1025.83 1026.00 1026.11 1026.26 1026.16 1026.54 1026.66 1026.52 1026.42 1026.34
1017.05 1016.74 1016.77 1016.58 1016.30 1016.44 1016.78 1016.88 1016.80 1017.18 1018.01 1018.42 1018.84 1018.88 1018.90 1018.77 1018.34 1018.41 1018.64 1019.00 1019.36 1019.78 1020.24 1020.61 1021.24 1021.80 1022.32 1022.88 1023.10 1023.57 1023.70 1023.93 1024.12 1024.28 1024.42 1024.68 1024.87 1025.09 1025.24 1025.39 1025.56 1025.74 1025.92 1026.21 1026.26 1026.51 1026.55 1026.46 1026.27
1017.48 1016.91 1016.99 1017.17 1016.81 1016.72 1017.18 1017.26 1017.07 1017.24 1017.35 1017.44 1017.96 1018.30 1018.24 1018.24 1018.35 1018.31 1018.35 1018.69 1019.01 1019.34 1019.85 1020.33 1020.71 1021.29 1021.80 1022.24 1022.67 1023.06 1023.46 1023.78 1023.86 1024.12 1024.33 1024.44 1024.64 1024.85 1025.09 1025.31 1025.49 1025.59 1025.78 1025.87 1026.07 1026.18 1026.24 1026.39 1026.31
1017.51 1017.01 1016.94 1017.06 1017.23 1017.34 1017.49 1017.86 1017.42 1017.01 1017.14 1017.19 1017.37 1017.53 1017.81 1017.79 1018.04 1018.30 1018.34 1018.60 1018.76 1019.15 1019.59 1019.99 1020.35 1020.83 1021.41 1021.88 1022.45 1022.85 1023.46 1023.78 1024.07 1024.16 1024.33 1024.45 1024.61 1024.71 1024.88 1024.93 1025.07 1025.26 1025.50 1025.79 1025.90 1026.02 1026.27 1026.13 1025.84
1017.55 1016.55 1016.70 1017.15 1017.51 1017.88 1017.80 1017.76 1017.14 1016.91 1016.89 1017.04 1017.17 1017.32 1017.47 1017.72 1018.02 1018.32 1018.53 1018.92 1019.04 1019.31 1019.52 1019.76 1020.23 1020.63 1020.99 1021.32 1022.15 1022.61 1023.11 1023.47 1023.66 1023.70 1023.74 1023.96 1024.22 1024.52 1024.73 1024.91 1025.08 1025.21 1025.28 1025.51 1025.60 1025.61 1025.87 1026.10 1026.11
1016.77 1016.10 1016.64 1017.41 1017.88 1018.20 1018.53 1018.24 1016.69 1016.75 1016.91 1016.77 1016.88 1017.20 1017.48 1017.73 1017.91 1018.52 1018.78 1019.01 1019.30 1019.52 1019.75 1019.85 1020.00 1020.40 1020.80 1021.09 1021.49 1022.04 1022.63 1022.74 1023.21 1023.69 1023.87 1024.01 1024.11 1024.31 1024.51 1024.76 1025.08 1025.27 1025.41 1025.45 1025.59 1025.82 1025.93 1026.23 1026.37
1016.47 1016.24 1017.15 1017.97 1018.56 1018.99 1017.96 1018.00 1016.76 1016.42 1015.59 1015.70 1016.32 1016.99 1017.46 1018.12 1018.58 1018.68 1018.95 1019.22 1019.45 1019.80 1019.91 1020.07 1020.07 1020.13 1020.52 1020.95 1021.25 1021.70 1022.25 1022.76 1023.38 1023.87 1024.14 1024.47 1024.74 1025.10 1025.23 1025.32 1025.60 1025.89 1026.07 1026.17 1026.24 1026.14 1026.37 1026.66 1026.79
1016.15 1015.92 1017.87 1019.12 1019.35 1018.25 1018.37 1018.38 1016.19 1015.11 1014.91 1015.01 1015.31 1016.52 1017.56 1018.06 1018.92 1019.12 1019.35 1019.64 1019.76 1019.96 1020.00 1020.09 1020.18 1020.09 1020.23 1020.80 1021.25 1021.61 1022.11 1022.71 1023.27 1023.94 1024.56 1025.02 1025.45 1025.82 1026.09 1026.06 1026.25 1026.54 1026.64 1026.68 1026.65 1026.82 1026.88 1027.00 1027.09
1015.10 1014.96 1015.95 1017.64 1019.09 1018.80 1018.94 1017.75 1015.40 1014.91 1014.89 1015.10 1015.31 1016.22 1017.67 1018.59 1019.13 1019.42 1019.70 1019.84 1019.93 1019.96 1020.02 1020.04 1020.30 1020.44 1020.52 1020.64 1021.37 1021.83 1022.46 1023.31 1023.61 1024.34 1024.90 1025.56 1025.97 1026.30 1026.56 1026.78 1027.00 1027.17 1027.25 1027.29 1027.25 1027.31 1027.45 1027.38 1027.48
1014.68 1014.68 1015.08 1017.30 1019.84 1019.30 1018.30 1016.96 1015.14 1015.05 1015.18 1015.69 1016.09 1016.84 1017.70 1018.73 1019.26 1019.60 1019.87 1020.08 1019.95 1020.13 1020.28 1020.34 1020.49 1020.71 1020.94 1021.30 1021.65 1022.19 1022.78 1023.43 1024.37 1024.99 1025.39 1025.89 1026.54 1026.84 1027.00 1027.19 1027.55 1027.77 1027.77 1027.68 1027.74 1027.82 1027.88 1027.83 1027.82
1013.42 1014.00 1014.98 1016.54 1018.60 1018.97 1018.03 1016.79 1015.38 1015.35 1015.49 1016.05 1016.67 1017.02 1017.72 1018.54 1019.24 1019.93 1020.07 1020.40 1020.50 1020.71 1020.81 1021.05 1021.12 1021.25 1021.39 1021.60 1022.13 1022.38 1023.21 1024.46 1025.05 1025.53 1026.03 1026.37 1026.93 1027.18 1027.39 1027.63 1027.80 1028.03 1028.20 1028.25 1028.15 1028.33 1028.36 1028.14 1028.18
1013.73 1013.39 1014.37 1015.39 1016.79 1017.23 1017.50 1015.77 1013.83 1014.00 1014.03 1014.85 1015.80 1016.97 1017.74 1018.35 1019.32 1020.09 1020.38 1020.61 1020.67 1021.05 1021.29 1021.65 1021.77 1021.97 1022.31 1022.39 1022.81 1023.29 1024.15 1025.20 1025.84 1026.37 1026.79 1027.05 1027.25 1027.50 1027.75 1027.98 1028.19 1028.29 1028.35 1028.52 1028.44 1028.38 1028.55 1028.38 1028.15
1013.22 1013.09 1013.70 1014.85 1016.39 1016.64 1016.10 1014.37 1013.05 1013.52 1014.08 1014.70 1015.69 1016.70 1017.76 1018.39 1019.27 1020.14 1020.52 1020.95 1021.12 1021.25 1021.40 1021.76 1022.16 1022.40 1022.80 1023.18 1023.44 1024.25 1024.96 1025.59 1026.32 1026.85 1027.24 1027.36 1027.54 1027.75 1028.00 1028.11 1028.29 1028.57 1028.68 1028.62 1028.48 1028.46 1028.50 1028.58 1028.41
Wind_Speed
4 4 3 4 6 5 3 3 2 4 4 5 3 10 8 4 2 4 3 9 14 9 7 7 11 11 12 12 13 14 13 15 17 15 14 17 17 16 17 17 16 16 18 17 18 17 16 18 16
3 2 4 3 6 2 5 3 4 3 7 9 9 5 7 2 2 8 6 11 12 10 7 7 10 10 10 12 14 14 13 15 16 16 15 18 18 17 16 16 16 15 17 17 17 17 17 17 18
2 2 4 5 4 4 5 3 6 4 5 3 5 6 5 3 4 6 11 14 11 9 8 8 10 9 10 14 15 15 13 13 14 15 15 18 17 16 15 14 16 15 16 15 16 17 16 16 19
3 5 5 5 4 4 7 7 5 7 3 8 6 7 4 3 5 7 13 13 12 8 7 9 11 10 15 15 15 15 14 13 15 15 15 15 17 15 14 13 15 15 14 15 16 16 14 15 17
4 3 4 1 3 1 2 6 5 6 5 4 2 4 3 3 10 15 14 12 13 7 6 7 11 10 14 15 15 14 13 14 15 15 14 14 14 14 14 13 12 14 14 14 14 13 13 14 15
3 3 4 2 2 3 2 5 7 3 4 4 7 6 0 4 12 12 11 11 11 10 6 6 9 11 13 14 14 14 14 13 13 14 14 13 13 11 13 12 11 12 13 13 13 12 12 12 12
4 4 5 4 5 2 6 6 8 7 7 4 10 6 2 7 8 12 12 12 10 8 8 5 7 9 11 11 12 13 13 12 12 12 13 12 11 10 10 9 12 13 13 12 11 10 9 8 9
4 5 5 3 6 5 3 5 4 8 4 5 9 8 8 10 12 12 11 10 10 8 7 6 6 6 6 6 10 11 11 11 12 11 10 9 10 10 10 9 11 12 11 10 9 8 7 6 5
3 4 3 6 7 5 4 5 1 1 7 3 0 8 11 13 17 13 10 5 6 6 6 7 7 6 6 6 6 8 10 10 9 8 8 7 4 5 6 6 9 9 9 8 7 6 5 5 7
4 4 8 6 5 7 6 6 7 4 3 4 4 4 20 15 17 17 13 10 7 8 7 6 7 7 6 5 5 5 5 4 4 5 5 4 5 4 4 5 7 7 6 5 5 4 3 3 3
4 6 5 3 5 6 10 6 3 10 2 6 11 18 18 15 11 14 13 14 10 8 7 8 7 6 7 6 4 3 3 3 3 6 5 4 3 3 3 2 1 2 3 1 2 2 1 2 1
2 3 4 2 4 6 11 9 5 4 7 11 15 22 18 16 12 13 13 13 12 11 8 8 8 7 6 5 5 4 3 3 3 4 5 4 3 3 3 2 2 2 1 1 0 0 2 2 2
4 4 4 4 3 5 5 6 7 6 3 12 10 14 17 16 12 10 13 11 11 12 11 11 11 9 7 6 4 4 4 4 4 4 5 4 4 4 3 3 3 2 2 2 2 2 1 2 3
7 4 3 5 5 3 6 3 5 4 7 12 14 13 14 17 15 9 12 13 13 11 11 9 10 12 10 7 6 5 4 5 4 4 5 6 4 4 4 3 3 3 3 2 2 2 2 3 3
5 6 2 2 6 4 7 2 6 6 10 15 11 9 11 12 9 14 13 13 15 11 12 10 9 7 11 10 7 5 4 5 4 4 5 6 5 5 4 3 3 3 2 2 1 2 2 3 3
4 4 5 4 7 2 5 8 6 8 14 12 10 8 10 10 12 9 8 10 12 11 12 12 10 8 8 8 7 4 4 4 3 5 4 6 5 5 4 3 3 2 2 2 2 2 3 4 3
4 6 4 3 5 4 2 4 4 7 9 11 9 9 9 8 8 9 11 11 14 14 14 13 11 10 8 7 5 5 5 4 4 3 4 5 6 5 3 3 2 2 2 2 2 1 1 3 3
7 5 3 7 8 4 3 4 4 8 8 11 9 9 9 10 16 12 11 10 10 11 14 14 11 11 7 5 5 3 3 4 3 4 4 5 4 5 4 4 4 4 3 3 0 2 2 3 4
5 4 5 2 5 5 9 5 9 8 5 8 9 9 10 11 10 9 10 9 9 10 13 14 13 10 8 3 4 3 5 2 2 2 5 5 4 4 4 3 3 3 3 3 3 1 2 3 1
6 7 4 2 1 4 5 9 5 6 8 10 12 10 11 7 7 8 8 9 9 12 12 13 14 13 10 7 3 3 3 2 3 4 4 5 5 5 4 4 4 4 2 3 2 3 1 2 2
10 5 6 7 3 3 6 7 4 7 5 5 7 7 7 13 11 8 8 9 8 8 9 12 13 14 12 8 4 4 3 2 2 2 2 4 5 5 5 5 4 3 2 3 3 3 4 3 1
13 8 7 10 7 5 4 6 7 8 10 7 9 9 9 10 5 5 8 6 6 5 5 7 8 11 11 11 8 7 5 4 3 4 3 4 5 4 4 4 3 3 2 3 3 2 2 1 3
10 7 11 7 4 6 3 2 8 3 8 10 12 9 8 8 9 9 7 6 4 5 4 4 6 11 11 12 12 10 7 3 3 3 4 4 2 1 2 1 2 3 3 3 4 3 4 2 2
5 6 7 5 4 3 7 8 7 7 10 9 5 9 9 8 7 7 5 4 3 1 3 4 6 8 12 13 13 11 10 7 5 3 4 3 4 4 6 7 5 5 5 5 5 5 5 4 4
9 9 3 1 2 9 1 3 10 5 6 7 17 13 9 9 8 7 7 6 4 3 4 5 7 6 10 11 9 9 8 7 8 6 5 5 3 3 5 5 7 5 5 6 5 5 5 5 3
12 11 7 8 7 4 4 8 8 4 5 8 6 11 9 8 7 7 7 6 6 5 6 7 7 7 7 10 9 10 9 5 6 6 6 5 5 4 5 6 6 6 6 6 5 4 4 5 4
9 10 6 9 3 5 5 7 8 2 1 3 8 13 11 9 7 7 6 6 6 6 5 7 8 7 7 9 8 11 10 10 9 8 7 6 5 4 6 7 6 6 6 6 5 4 5 5 4
8 9 3 2 6 4 4 4 6 6 9 7 9 13 9 8 8 6 6 6 4 4 5 6 6 8 7 9 8 10 12 10 8 8 8 7 6 6 6 6 6 6 6 6 6 5 5 5 4
3 4 3 6 5 7 3 8 10 15 17 20 14 8 10 10 9 7 6 5 6 6 7 6 7 9 8 10 10 13 11 9 8 8 6 6 6 6 6 6 6 6 6 6 5 5 5 6 5
2 7 7 6 5 1 3 7 2 6 8 8 10 12 9 10 9 7 7 7 7 7 7 7 7 9 8 9 12 12 10 9 9 7 6 6 7 6 6 6 6 6 5 5 5 4 4 5 6
Wind_Direction
337 349 86 38 57 63 288 221 151 124 59 327 37 89 109 52 64 176 119 132 131 133 130 114 109 113 114 125 118 108 109 102 95 98 92 98 91 86 79 82 84 87 92 90 90 87 90 84 79
351 65 44 90 86 70 271 320 138 148 136 127 93 95 57 69 68 112 99 139 128 126 115 112 113 115 121 134 118 108 108 103 99 92 75 99 94 89 90 90 88 88 90 85 88 88 75 67 60
322 94 85 96 117 182 186 213 158 127 142 127 92 59 106 110 122 150 133 131 125 111 114 119 112 110 126 126 115 107 105 106 103 94 81 100 93 91 92 94 92 93 89 93 86 82 72 64 61
33 6 31 89 231 234 168 190 193 126 73 66 115 69 59 229 136 124 126 123 114 109 114 118 115 111 123 122 116 113 116 114 104 104 93 85 95 92 98 93 99 95 89 88 87 80 73 66 63
35 53 72 116 294 29 151 174 177 122 109 91 136 115 54 16 115 120 129 124 119 114 113 115 114 110 123 123 118 115 113 113 107 105 101 98 98 99 104 101 95 102 95 91 88 82 70 62 60
21 97 75 198 257 97 198 184 143 119 116 163 79 94 189 106 112 130 125 120 122 125 123 121 107 103 118 120 116 116 117 117 114 110 106 108 99 103 110 109 96 96 99 91 87 80 71 61 56
133 94 179 193 172 197 202 176 145 143 148 168 141 93 156 133 135 132 129 123 125 127 123 126 120 116 119 121 122 120 118 116 109 106 103 94 89 84 105 98 90 94 99 95 91 88 77 64 52
120 98 145 185 177 216 204 147 130 132 174 103 139 152 173 160 145 130 127 132 137 137 133 130 122 112 112 124 123 123 118 110 106 104 107 107 97 86 83 80 93 100 103 104 101 93 86 69 39
113 73 173 201 152 225 201 127 139 6 110 78 48 153 167 140 138 132 129 119 132 142 147 143 135 130 126 119 126 115 118 119 121 119 116 96 95 95 88 98 96 101 104 105 103 95 77 47 11
115 139 209 189 195 189 167 127 147 103 101 30 53 72 148 134 150 150 154 155 162 164 165 162 146 144 137 128 127 118 121 123 126 126 124 124 127 127 117 110 110 102 102 111 116 114 88 28 350
173 199 199 219 198 193 148 128 140 124 235 200 156 144 158 148 158 159 161 163 168 176 167 166 155 151 144 139 139 134 135 138 150 156 163 152 141 132 125 120 116 132 108 79 77 76 27 12 19
199 232 185 252 122 145 161 132 124 172 216 159 160 156 161 162 165 167 165 170 164 171 173 172 163 159 161 146 162 161 156 163 163 173 164 142 146 152 157 162 179 171 197 207 203 323 313 327 322
225 217 149 139 107 142 122 140 171 213 92 130 141 159 171 177 166 170 172 172 172 172 173 175 168 168 161 158 164 164 175 177 182 170 167 160 161 177 172 197 204 206 202 193 218 251 284 305 312
207 190 180 164 128 142 138 143 142 224 115 139 156 176 180 180 185 163 170 176 180 180 177 175 170 168 167 165 169 178 176 181 173 174 176 174 168 175 182 191 204 221 209 216 218 235 271 287 299
215 116 4 208 166 159 136 101 203 162 148 155 173 182 185 190 189 194 182 178 180 186 176 183 180 179 169 165 168 173 177 168 168 182 184 176 174 186 182 189 208 227 225 230 259 291 301 299 300
177 89 150 243 152 213 117 229 221 164 147 171 180 186 195 201 200 199 190 176 184 180 182 179 183 185 174 177 159 154 157 153 178 174 176 185 189 180 179 196 221 226 225 220 241 254 286 274 274
213 174 160 164 199 129 165 205 220 169 160 179 189 191 204 202 220 213 205 196 183 183 182 181 181 182 175 177 169 161 164 162 171 174 170 185 180 180 170 201 236 210 224 231 222 273 228 292 290
174 155 148 162 203 134 196 231 172 178 175 193 198 198 204 205 214 206 209 198 187 179 179 180 179 180 170 157 138 155 176 177 175 195 154 161 184 192 183 196 214 209 237 263 8 277 255 262 283
174 133 143 223 191 121 197 203 204 186 191 200 213 209 208 213 217 199 196 193 182 174 173 179 176 179 163 150 155 167 193 185 192 194 198 201 205 219 216 214 231 218 235 253 235 260 300 301 283
267 168 177 12 79 140 167 232 216 196 217 197 203 211 210 196 203 200 191 180 183 177 181 179 182 175 178 170 163 145 152 173 175 185 198 204 208 219 220 226 237 233 243 248 229 213 248 258 215
244 191 177 158 127 30 114 294 213 240 238 217 230 218 204 199 197 195 182 183 166 175 176 181 181 179 181 169 139 98 90 83 142 177 184 214 215 219 217 225 225 242 221 255 241 233 217 260 253
251 189 172 144 131 184 162 246 233 214 219 211 220 209 205 193 173 170 165 162 167 168 150 172 172 177 176 164 167 162 175 166 191 181 185 201 208 228 235 231 230 256 254 254 261 270 256 234 281
248 148 158 159 123 121 230 118 263 138 226 220 219 209 203 192 168 168 171 158 150 145 172 181 177 177 173 172 177 183 187 160 142 165 179 178 158 148 84 72 47 49 42 29 20 359 356 359 325
221 102 59 60 106 229 204 155 255 192 201 210 195 196 189 172 165 153 146 140 143 109 170 191 182 180 174 177 185 180 169 146 138 150 117 98 77 55 43 55 55 47 41 35 21 26 29 13 353
194 155 113 196 209 207 60 166 235 235 237 208 189 187 179 165 170 164 161 160 145 164 179 182 170 157 171 172 169 147 141 145 134 128 123 115 89 56 41 55 54 46 47 45 42 44 42 26 29
205 190 159 178 198 175 132 228 241 224 301 272 194 155 152 168 173 168 165 162 157 149 154 141 148 118 127 128 131 113 107 104 93 96 102 95 98 84 68 65 61 54 48 42 46 49 39 33 28
200 200 160 99 6 79 207 277 304 206 351 144 149 155 169 173 167 162 161 171 157 153 140 133 121 104 98 106 115 116 111 97 105 101 97 100 94 90 80 74 72 58 53 50 49 49 38 28 16
189 163 114 35 142 219 265 271 227 224 219 186 182 186 166 152 154 164 159 158 137 138 117 105 105 116 115 108 107 101 102 101 101 100 100 95 96 90 84 81 78 68 54 42 48 36 15 17 5
159 177 77 114 143 163 152 253 209 208 198 191 190 176 168 162 165 166 160 152 136 125 122 115 110 112 100 100 103 100 97 96 90 97 93 93 94 90 85 82 76 63 51 34 40 35 15 5 341
314 190 156 171 212 115 149 274 172 224 201 166 167 173 173 165 158 159 154 152 145 137 128 120 109 108 102 104 103 101 102 105 105 102 104 108 102 91 93 84 75 60 46 35 37 21 358 348 340